Notices

What's New in latest Release from April 7th, 2021:

- Updated Glossary, including Speed of Maximum Gust, and Total Hourly Precipitation

- Updated national and regional climate services offices contacts and prices information

- Addition of station inventory lists for 1981-2010, 1971-2000, and 1961-1990 Normals.

If you haven't already, please take our survey and provide feedback about our website: https://eccc.sondage-survey.ca/f/LanguageSelection.aspx?s=442ca660-fcf1-47c0-95a9-59707d6fd709

Hourly Data Report for November 24, 2019

EUREKA CLIMATE
NUNAVUT
Current Station Operator: ECCC - MSC

79°59'21.000" N
85°56'02.000" W
10.00 m
2401199
71613
NEK

Download Data

Hourly Data (November 2019)
Hourly Data Report for November 24, 2019
TIME
LST
Temp Definition
°C
Dew Point Definition
°C
Rel Hum Definition
%
Precip. Amount Definition
mm

Wind Dir Definition
10's deg

Wind Spd Definition
km/h
Visibility Definition
km
Stn Press Definition
kPa
Hmdx Definition


Wind Chill Definition


Weather Definition


00:00 -33.4 -36.6 73 0.0 8 2   101.00   -36 LegendNANA
01:00 -32.9 -36.1 73 0.0 10 1   100.92   -34 LegendNANA
02:00 -33.1 -36.3 73 0.0 12 3   100.87   -37 LegendNANA
03:00 -32.7 -35.9 74 0.0 0 1   100.81   -34 LegendNANA
04:00 -26.7 -29.3 79 0.0 31 13   100.75   -37 LegendNANA
05:00 -26.6 -29.0 80 0.0 30 16   100.68   -38 LegendNANA
06:00 -26.8 -29.3 79 0.0 32 17   100.61   -38 LegendNANA
07:00 -25.8 -28.2 80 0.0 30 17   100.58   -37 LegendNANA
08:00 -25.4 -27.9 80 0.0 30 17   100.54   -36 LegendNANA
09:00 -24.8 -27.1 81 0.0 28 16   100.52   -35 LegendNANA
10:00 -24.6 -26.8 82 0.0 30 13   100.53   -34 LegendNANA
11:00 -25.0 -27.4 81 0.0 29 14   100.53   -35 LegendNANA
12:00 -24.5 -26.8 81 0.0 29 16   100.53   -35 LegendNANA
13:00 -26.2 -28.8 79 0.0 29 7   100.58   -33 LegendNANA
14:00 -30.6 -33.4 76 0.0 11 13   100.62   -41 LegendNANA
15:00 -29.2 -32.0 77 0.0 12 6   100.70   -36 LegendNANA
16:00 -29.6 -32.4 77 0.0 11 12   100.77   -40 LegendNANA
17:00 -29.8 -32.7 76 0.0 7 7   100.82   -37 LegendNANA
18:00 -29.0 -31.7 77 0.0 10 4   100.88   -33 LegendNANA
19:00 -29.2 -32.0 77 0.0 4 6   100.92   -36 LegendNANA
20:00 -29.5 -32.2 77 0.0 10 5   100.97   -35 LegendNANA
21:00 -29.8 -32.8 76 0.0 20 2   101.02   -32 LegendNANA
22:00 -28.5 -31.2 78 0.0 11 4   101.02   -33 LegendNANA
23:00 -28.5 -31.2 78 0.0 13 4   101.09   -33 LegendNANA

Notes on Data Quality.

Legend

  • E = Estimated
  • M = Missing
  • NA = Not Available*
  • [empty] = Indicates an unobserved value
Date modified: